SCP
0 0 0 0 0 0 0 0 0 0 0 0 0 0 0 0 0 0 0 0 0 0 0 0 0 0 0 0 0 0 0 0 0 0 0 0 0 0 0 0 0 0 0
0 0 0 0 0 0 0 0 0 0 0 0 0 0 0 0 0 0 0 0 0 0 0 0 0 0 0 0 0 0 0 0 0 0 0 0 0 0 0 0 0 0 0
0 0 0 0 0 0 0 0 0 0 0 0 0 0 0 0 0 0 0 0 0 0 0 0 0 0 0 0 0 0 0 0 0 0 0 0 0 0 0 0 0 0 0
0 0 0 0 0 0 0 0 0 0 0 0 0 0 0 0 0 0 0 0 0 0 0 0 0 0 0 0 0 0 0 0 0 0 0 0 0 0 0 0 0 0 0
0 0 0 0 0 0 0 0 0 0 0 0 0 0 0 0 0 0 0 0 0 0 0 0 0 0 0 0 0 0 0 0 0 0 0 0 0 0 0 0 0 0 0
0 0 0 0 0 0 0 0 0 0 0 0 0 0 0 0 0 0 0 0 0 0 0 0 0 0 0 0 0 0 0 0 0 0 0 0 0 0 0 0 0 0 0
0 0 0 0 0 0 0 0 0 0 0 0 0 0 0 0 0 0 0 0 0 0 0 0 0 0 0 0 0 0 0 0 0 0 0 0 0 0 0 0 0 0 0
0 0 0 0 0 0 0 0 0 0 0 0 0 0 0 0 0 0 0 0 0 0 0 0 0 0 0 0 0 0 0 0 0 0 0 0 0 0 0 0 0 0 0
0 0 0 0 0 0 0 0 0 0 0 0 0 0 0 0 0 0 0 0 0 0 0 0 0 0 0 0 0 0 0 0 0 0 0 0 0 0 0 0 0 0 0
0 0 0 0 0 0 0 0 0 0 0 0 0 0 0 0 0 0 0 0 0 0 0 0 0 0 0 0 0 0 0 0 0 0 0 0 0 0 0 0 0 0 0
0 0 0 0 0 0 0 0 0 0 0 0 0 0 0 0 0 0 0 0 0 0 0 0 0 0 0 0 0 0 0 0 0 0 0 0 0 0 0 0 0 0 0
0 0 0 0 0 0 0 0 0 0 0 0 0 0 0 0 0 0 0 0 0 0 0 0 0 0 0 0 0 0 0 0 0 0 0 0 0 0 0 0 0 0 0
0 0 0 0 0 0 0 0 0 0 0 0 0 0 0 0 0 0 0 0 0 0 0 0 0 0 0 0 0 0 0 0 0 0 0 0 0 0 0 0 0 0 0
0 0 0 0 0 0 0 0 0 0 0 0 0 0 0 0 0 0 0 0 0 0 0 0 0 0 0 0 0 0 0 0 0 0 0 0 0 0 0 0 0 0 0
0 0 0 0 0 0 0 0 0 0 0 0 0 0 0 0 0 0 0 0 0 0 0 0 0 0 0 0 0 0 0 0 0 0 0 0 0 0 0 0 0 0 0
0 0 0 0 0 0 0 0 0 0 0 0 0 0 0 0 0 0 0 0 0 0 0 0 0 0 0 0 0 0 0 0 0 0 0 0 0 0 0 0 0 0 0
0 0 0 0 0 0 0 0 0 0 0 0 0 0 0 0 0 0 0 0 0 0 0 0 0 0 0 0 0 0 0 0 0 0 0 0 0 0 0 0 0 0 0
0 0 0 0 0 0 0 0 0 0 0 0 0 0 0 0 0 0 0 0 0 0 0 0 0 0 0 0 0 0 0 0 0 0 0 0 0 0 0 0 0 0 0
0 0 0 0 0 0 0 0 0 0 0 0 0 0 0 0 0 0 0 0 0 0 0 0 0 0 0 0 0 0 0 0 0 0 0 0 0 0 0 0 0 0 0
0 0 0 0 0 0 0 0 0 0 0 0 0 0 0 0 0 0 0 0 0 0 0 0 0 0 0 0 0 0 0 0 0 0 0 0 0 0 0 0 0 0 0
0 0 0 0 0 0 0 0 0 0 0 0 0 0 0 0 0 0 0 0 0 0 0 0 0 0 0 0 0 0 0 0 0 0 0 0 0 0 0 0 0 0 0
0 0 0 0 0 0 0 0 0 0 0 0 0 0 0 0 0 0 0 0 0 0 0 0 0 0 0 0 0 0 0 0 0 0 0 0 0 0 0 0 0 0 0
0 0 0 0 0 -0 -0 -0 0 0 0 0 0 0 0 0 0 0 0 0 0 0 0 0 0 0 0 0 0 0 0 0 0 0 0 0 0 0 0 0 0 0 0
0 0 0 0 -0 -0 -0 -0 -0 -0 -0 0 0 0 0 0 0 0 0 0 0 0 0 0 0 0 0 0 0 0 0 0 0 0 0 0 0 0 0 0 0 0 0
0 0 0 -0 -0 -0 -0 -0 0 0 0 0 0 0 0 0 0 0 0 0 0 0 0 0 0 0 0 0 0 0 0 0 0 0 0 0 0 0 0 0 0 0 0
0 0 -0 -0 -0 -0 0 0 0 0 0 0 0 0 0 0 0 0 0 0 0 0 0 0 0 0 0 0 0 0 0 0 0 0 0 0 0 0 0 0 0 0 0
Wind_Speed
3 3 3 2 2 2 2 3 3 3 3 4 4 4 4 4 4 4 4 4 5 4 4 4 4 4 3 2 2 2 3 3 3 3 1 1 1 1 1 1 1 1 2
3 3 3 2 2 2 1 2 2 3 3 3 3 3 4 4 4 5 5 5 5 4 4 4 4 4 4 3 3 3 3 3 3 3 1 1 1 1 1 1 1 1 1
4 4 3 2 2 2 1 1 2 2 2 2 3 3 3 4 4 4 4 4 4 4 4 4 4 4 3 2 3 3 2 3 3 2 2 1 1 1 2 2 2 2 2
4 4 3 2 2 1 1 1 1 2 2 2 2 2 2 3 3 3 3 3 3 2 2 3 3 3 3 3 3 3 2 2 2 1 1 1 1 1 1 1 1 2 2
4 3 2 2 2 2 2 2 2 2 2 2 2 1 1 1 2 2 3 3 2 2 1 1 1 2 2 2 2 2 3 2 1 1 1 0 0 0 0 0 0 1 2
4 3 2 2 2 2 2 2 2 2 1 2 1 1 1 0 1 3 3 2 2 2 1 1 1 1 1 2 3 3 3 3 3 2 1 1 1 1 0 0 1 0 0
4 3 3 3 2 2 2 2 2 2 2 2 2 2 1 1 3 5 5 4 3 2 2 1 1 1 2 3 5 6 6 5 3 3 2 1 1 1 1 0 1 1 0
4 3 3 3 2 2 2 2 2 2 2 2 2 2 2 3 4 6 7 5 4 4 3 3 2 2 2 3 4 5 5 5 4 3 2 2 2 1 0 1 1 2 2
3 3 3 3 3 2 2 2 2 3 3 3 3 3 3 3 5 5 5 4 5 5 5 5 4 3 4 5 5 6 6 5 8 11 10 9 10 8 4 3 2 2 2
3 3 4 4 4 3 2 2 3 3 3 3 4 4 4 4 5 5 5 4 5 4 5 5 8 7 7 6 5 5 6 4 5 7 8 9 9 11 12 6 3 2 2
4 4 5 5 4 4 3 3 4 4 4 4 4 4 5 5 6 7 6 4 5 5 5 5 6 10 11 10 8 6 6 6 6 7 6 7 7 7 8 7 6 4 3
6 6 6 5 4 4 5 4 4 4 5 4 4 5 4 5 6 8 9 8 7 6 5 4 6 11 12 12 9 10 11 9 6 6 7 6 6 6 6 6 7 7 5
7 6 5 6 5 5 5 5 4 4 4 3 4 4 4 4 5 9 10 10 10 7 7 10 11 12 12 11 13 12 9 6 6 6 6 5 4 4 4 4 5 5 6
7 5 5 6 6 6 5 4 4 4 4 4 4 4 4 4 4 4 5 6 9 9 8 10 13 13 10 10 9 8 6 6 5 5 4 3 3 4 4 4 4 4 4
7 6 6 6 6 6 7 6 5 5 4 4 3 4 4 4 4 5 5 5 5 6 6 6 6 6 7 6 6 6 5 5 5 4 4 4 4 4 4 4 4 4 4
6 6 5 5 5 5 7 8 15 12 14 13 9 7 7 8 9 11 11 11 11 10 8 7 6 6 6 5 5 5 5 5 4 4 4 4 4 4 4 4 4 4 4
7 6 5 5 5 5 5 6 7 10 15 15 13 12 11 11 12 12 13 13 11 10 8 6 6 5 5 5 4 4 4 4 3 4 4 4 3 3 4 4 4 4 4
7 7 6 5 5 5 5 6 6 7 6 6 9 12 12 12 12 11 11 10 8 7 6 5 5 4 4 4 4 4 4 4 4 4 4 4 3 3 3 4 4 4 3
6 5 5 5 6 6 6 6 6 7 6 5 5 6 9 10 11 11 8 6 6 5 5 5 4 4 4 4 4 4 4 4 4 3 4 4 3 3 3 3 3 4 3
6 10 8 6 6 6 6 6 6 6 6 5 5 4 3 5 5 6 5 5 5 5 4 4 3 3 3 3 3 3 3 3 3 3 3 3 3 3 3 3 3 3 3
6 7 10 7 6 6 6 6 6 5 5 5 4 3 5 5 5 5 4 4 4 3 3 3 3 3 2 2 2 3 3 3 2 2 2 2 2 2 2 2 3 3 3
6 6 5 6 6 5 5 5 5 5 5 5 4 4 6 5 4 4 3 3 3 2 2 2 2 2 2 2 2 2 2 2 2 2 2 2 2 2 2 2 2 3 3
7 7 6 6 5 7 6 5 5 4 4 4 4 3 3 3 3 3 2 2 2 2 2 2 2 1 1 1 1 1 1 0 0 0 0 1 1 1 2 2 3 3 3
7 7 7 6 5 5 5 4 4 4 4 3 3 3 3 2 2 2 2 2 2 1 1 1 1 1 1 0 0 0 0 1 1 1 1 1 1 1 1 2 2 3 3
6 5 5 5 5 5 4 4 4 4 3 3 3 3 2 2 2 2 2 1 2 1 1 1 1 1 1 1 1 1 1 1 1 1 1 1 1 2 2 2 2 3 3
5 5 4 4 4 4 4 4 3 3 3 3 3 2 2 2 2 2 2 2 2 1 1 1 1 2 2 1 1 2 2 2 2 2 1 2 2 2 2 2 3 3 4
Wind_Direction
161 162 165 172 173 168 182 190 187 187 184 182 183 186 193 198 198 195 202 194 199 211 212 206 215 202 201 205 202 201 203 194 225 260 267 295 309 319 330 293 263 254 262
149 141 148 145 142 156 183 185 173 178 181 183 181 188 197 200 196 195 202 201 202 213 220 214 224 205 201 207 203 209 208 201 208 238 268 311 316 329 344 341 339 320 288
141 136 133 133 141 165 187 173 163 168 170 174 177 188 195 196 195 197 196 198 203 213 217 214 219 198 203 208 206 212 213 204 200 212 245 286 315 2 19 9 17 12 19
139 138 141 152 155 158 151 142 149 153 153 161 171 181 183 184 188 185 182 188 186 195 212 214 203 192 208 209 211 214 207 196 183 195 232 271 302 355 51 353 359 29 26
140 137 147 138 122 108 103 115 118 129 148 143 139 138 146 171 187 176 169 171 169 161 147 156 148 142 166 184 189 190 178 167 158 173 226 257 292 344 237 247 256 45 45
139 140 131 118 113 109 105 108 106 105 108 107 113 118 105 152 132 145 150 142 141 133 130 116 109 101 98 106 116 120 133 164 185 186 200 215 255 253 237 178 174 127 52
129 125 123 124 123 123 115 105 108 111 106 100 97 99 94 78 95 102 105 111 107 106 107 95 81 59 83 98 83 75 68 66 103 153 154 185 217 242 199 147 125 120 117
119 117 116 119 117 105 100 102 105 99 97 94 90 94 88 74 89 101 104 101 88 78 73 70 75 54 66 101 100 85 71 54 60 82 99 80 63 40 160 179 150 116 85
109 112 115 118 114 107 107 105 101 97 88 81 75 82 87 68 71 97 107 98 87 73 65 62 67 66 67 101 107 100 84 66 65 73 73 65 56 49 54 81 90 95 67
98 100 103 105 106 105 104 97 91 94 93 86 73 66 73 66 62 82 101 104 96 83 67 60 61 69 65 80 97 101 93 74 72 66 60 53 50 48 46 49 60 82 78
95 95 91 89 92 89 85 84 90 91 89 85 80 68 63 61 63 70 86 102 108 96 78 62 56 68 70 71 76 81 90 90 77 72 65 56 50 46 44 45 45 60 77
97 92 86 81 82 82 84 79 83 91 88 83 83 70 54 53 63 73 82 90 100 98 91 79 74 74 72 71 74 79 83 83 78 71 64 55 49 45 44 48 52 56 59
95 90 86 82 76 76 82 81 80 81 89 84 84 78 63 59 65 73 82 87 91 91 87 88 82 77 74 70 69 71 74 76 78 75 69 55 42 40 44 46 46 51 51
99 94 92 91 83 72 66 66 76 78 87 92 95 91 79 67 65 73 80 83 84 86 84 82 78 73 72 71 67 63 63 68 78 78 72 60 50 47 44 40 42 38 44
99 95 92 89 92 81 69 55 61 53 72 96 94 97 97 85 64 84 96 90 93 99 98 82 74 71 69 65 61 57 58 62 65 66 71 68 60 55 45 36 40 44 45
106 101 97 97 96 98 95 76 56 64 65 66 72 86 77 84 89 85 86 89 92 99 92 86 80 76 74 71 70 63 55 55 55 65 67 65 61 56 51 44 46 47 44
110 110 106 104 102 100 99 102 92 66 60 60 63 76 86 88 87 88 87 82 76 82 85 84 83 81 77 72 69 65 57 48 51 61 63 59 59 58 57 50 43 41 38
100 103 103 100 98 97 95 94 96 98 85 60 50 62 76 82 83 86 89 84 70 65 78 86 85 83 80 76 70 64 60 56 55 56 56 55 55 59 57 50 42 36 29
104 104 101 99 96 96 96 94 93 92 90 85 76 61 66 76 72 66 71 81 88 81 77 77 79 82 81 78 72 66 65 61 56 56 54 52 52 56 52 43 39 32 26
104 113 111 106 103 102 101 101 99 98 95 92 88 82 72 74 74 64 65 75 83 84 83 82 78 79 81 79 76 73 69 64 60 57 54 49 48 54 51 42 34 27 18
111 115 114 108 106 109 109 109 108 107 105 98 87 81 95 93 89 82 78 79 85 89 91 91 87 84 80 81 83 80 74 62 54 52 51 46 45 43 34 32 28 21 12
106 106 106 109 108 106 106 107 109 109 109 105 95 85 90 94 95 93 87 82 84 88 97 102 96 85 80 83 90 87 76 62 50 45 44 41 38 32 24 24 21 13 9
107 107 104 102 104 108 106 106 111 114 112 110 111 105 101 102 102 103 100 93 90 93 95 102 100 79 58 53 59 96 109 68 10 350 19 26 21 13 5 6 3 358 356
111 114 116 113 111 113 115 116 117 119 118 118 117 116 117 119 120 122 121 111 105 103 107 115 122 125 113 55 1 235 230 253 265 258 259 283 321 334 338 339 336 335 336
114 118 120 122 124 124 123 124 125 125 125 127 129 130 132 134 139 146 146 144 148 153 158 156 158 177 201 237 277 298 287 260 258 258 243 250 278 298 311 321 323 322 325
122 124 125 127 129 132 135 137 137 136 136 138 141 147 155 165 172 177 177 181 188 193 200 206 211 217 227 245 274 291 287 278 269 256 244 248 262 283 300 303 313 312 315